Theta_e
309 312 312 312 312 315 313 309 321 318 325 320 313 320 321 320 323 320 318 323 323 323 322 323 323 324 326 325 321 320 317 314 319 320 320 319 317 316 313 316 316 312 313 317
308 312 312 312 312 316 312 311 312 318 319 319 314 314 319 317 316 318 317 321 319 320 323 326 323 324 327 327 327 328 319 317 321 324 321 319 320 314 311 309 310 314 317 319
308 311 312 312 313 316 314 310 315 313 309 308 313 316 316 316 316 317 315 317 318 320 322 323 326 330 329 326 327 334 321 314 321 325 323 319 321 319 313 314 314 315 314 318
308 309 312 313 313 315 314 308 312 312 314 313 315 314 314 318 320 317 315 317 318 323 324 328 331 329 327 327 328 325 322 327 321 319 320 319 318 319 317 314 315 319 322 314
309 308 312 312 313 313 313 311 311 308 309 310 311 312 316 319 319 319 318 320 320 321 327 329 330 329 327 327 325 327 321 327 326 330 326 325 325 320 318 315 316 314 316 316
309 308 311 312 313 313 312 311 311 307 307 310 308 315 318 319 318 317 317 320 318 319 323 320 319 321 320 322 326 327 326 326 327 331 325 326 330 322 321 319 332 329 318 324
309 309 308 311 312 314 314 312 309 309 311 312 315 317 317 318 317 318 317 319 321 319 316 314 316 317 318 318 320 321 324 324 324 329 328 336 328 326 327 332 333 332 333 333
309 309 308 310 312 313 313 313 310 308 310 313 314 315 315 314 314 317 317 319 317 312 315 315 317 316 318 321 321 320 320 322 327 330 329 328 330 332 333 331 331 331 333 332
309 309 309 307 311 312 313 312 313 308 309 311 314 314 314 315 314 315 316 315 313 316 315 318 319 320 319 323 324 317 318 318 320 324 331 334 328 331 329 330 330 330 331 331
307 309 309 308 308 311 312 312 312 310 309 307 310 312 313 312 313 313 313 315 315 314 316 320 321 321 321 324 325 322 318 317 323 324 326 325 328 328 328 335 333 329 330 330
306 308 309 309 307 309 311 312 312 311 306 307 309 311 312 311 311 314 312 313 313 315 319 321 321 322 321 322 320 320 320 321 320 322 327 329 325 325 330 328 327 329 330 329
305 306 308 309 307 307 309 311 312 312 312 308 310 311 311 312 311 309 308 311 312 313 315 318 317 321 319 319 325 320 325 320 325 321 322 320 324 326 323 323 325 326 329 328
304 305 308 308 308 306 308 310 311 311 309 308 306 310 311 312 312 311 310 309 309 312 315 313 315 321 318 321 319 322 320 321 321 321 321 322 323 321 320 323 328 326 326 327
304 305 306 308 308 306 307 308 311 311 309 313 308 310 311 311 311 311 311 310 310 309 311 314 317 321 316 317 317 318 318 319 318 318 317 317 318 319 321 323 324 324 324 325
304 305 306 308 308 306 307 310 311 312 310 312 308 310 310 311 311 311 311 310 307 309 315 318 320 315 317 316 315 315 315 317 317 319 316 316 316 316 318 320 319 321 322 323
304 305 307 308 307 306 309 307 314 312 312 312 313 308 308 310 311 310 309 308 307 309 312 314 314 313 319 322 320 314 314 313 313 317 315 314 315 316 317 317 317 318 320 321
305 306 308 307 307 307 308 308 313 313 313 312 312 308 306 309 312 311 311 311 309 310 312 313 313 314 318 321 322 315 314 314 315 314 313 314 314 315 315 316 318 319 321 322
306 308 307 307 308 308 309 312 310 313 312 311 314 310 308 310 311 312 307 312 309 310 312 316 317 316 317 321 315 316 316 316 316 317 317 317 316 316 316 316 317 319 321 321
307 308 308 308 309 308 313 314 312 313 312 316 315 314 310 307 309 308 308 308 313 309 315 316 318 319 321 318 318 317 316 317 316 315 316 317 318 319 318 318 318 319 320 320
311 310 310 315 314 314 313 312 314 313 314 313 314 310 310 308 309 311 311 312 313 313 314 314 319 318 315 316 316 316 316 316 316 318 319 317 317 317 318 319 319 319 320 320
309 311 314 314 313 313 313 317 316 314 315 312 311 309 309 306 312 312 312 313 315 319 317 318 320 321 318 316 312 312 315 316 317 316 316 317 316 317 318 319 319 319 318 319
307 307 308 310 311 314 318 319 317 316 315 310 310 309 307 307 307 317 315 317 316 318 316 317 321 317 316 312 315 316 316 319 320 319 319 319 319 319 319 320 319 318 318 320
309 308 312 315 313 317 319 316 315 314 311 310 311 313 310 312 310 315 315 318 317 315 318 319 320 314 311 313 315 317 318 319 319 319 318 318 319 319 320 319 319 320 319 321
308 312 311 317 316 315 313 313 313 312 311 311 311 315 313 310 314 313 317 315 316 319 317 316 315 313 311 312 315 317 318 319 319 319 318 318 319 319 320 319 319 318 319 321
309 311 314 314 311 311 312 311 312 312 309 309 307 307 310 311 313 311 314 319 316 315 315 310 311 311 311 312 315 317 317 318 319 318 318 318 318 320 320 320 320 319 320 320
308 310 312 311 313 314 312 312 313 309 307 305 309 313 313 313 310 315 316 314 312 313 310 309 309 311 310 310 313 316 316 317 318 318 318 318 318 318 320 321 321 321 321 322
314 313 310 310 311 312 312 311 311 308 311 314 313 316 315 309 311 313 309 311 311 310 309 308 308 310 309 309 312 314 315 317 318 318 318 317 315 316 319 320 319 322 322 320
Wind_Speed
36 41 45 45 42 37 12 3 3 14 3 4 2 2 2 5 4 5 5 3 3 2 3 2 2 3 5 9 2 5 3 4 4 12 2 2 4 7 5 5 5 2 3 8
35 39 44 44 39 30 8 3 1 9 1 3 2 4 3 3 8 6 7 5 4 4 2 1 1 4 1 10 6 2 4 0 3 9 6 4 3 5 6 4 3 7 6 8
34 39 43 43 39 24 5 3 2 4 5 1 4 3 3 5 6 3 4 3 4 5 5 4 3 5 3 7 5 6 3 3 6 6 6 1 5 4 4 6 4 5 7 10
33 37 42 42 41 20 4 4 1 2 2 4 3 2 2 2 5 5 7 5 4 2 1 2 2 5 6 4 9 5 4 3 2 5 8 4 6 9 7 9 8 9 12 10
31 34 38 41 40 17 11 3 3 4 2 3 3 5 2 2 4 2 2 3 7 3 2 2 3 1 2 5 5 5 4 2 1 4 5 4 6 8 9 8 5 9 6 6
27 31 34 37 35 24 9 6 3 3 4 3 2 2 3 4 4 2 1 3 2 3 2 4 8 6 6 4 3 2 0 2 3 5 4 8 6 3 5 2 4 2 5 3
22 26 28 31 29 25 10 6 2 3 1 3 2 2 2 2 3 3 5 4 2 0 6 5 2 3 5 5 9 6 5 3 4 5 3 7 3 4 3 9 1 3 3 9
18 21 23 25 25 18 17 13 4 2 2 0 2 5 4 6 5 3 3 3 1 5 4 2 3 4 5 5 5 6 4 4 2 4 6 5 3 2 3 3 3 3 2 8
16 17 19 19 21 19 10 15 8 3 3 2 1 2 2 2 3 6 4 4 6 5 2 2 5 5 4 4 1 4 5 3 3 2 3 6 6 2 3 3 4 4 2 4
15 15 15 17 17 17 11 7 10 3 1 3 3 3 2 1 1 2 4 6 7 4 2 2 4 5 3 4 5 4 2 2 4 4 4 7 3 4 5 4 5 3 2 3
14 14 13 15 15 15 13 3 8 5 1 4 5 3 4 0 1 1 3 3 3 4 4 1 2 1 2 2 3 4 6 5 4 2 3 7 4 4 1 4 5 4 4 4
14 13 13 13 13 12 12 3 5 6 4 5 5 13 17 11 6 3 2 2 2 3 3 1 1 2 2 1 3 3 2 5 3 7 5 3 3 3 5 5 6 6 5 6
13 13 13 11 11 11 10 6 8 3 2 4 3 1 2 5 17 16 3 3 3 1 2 2 2 3 3 2 4 2 2 3 2 2 3 4 5 7 6 7 7 7 8 10
14 13 12 11 10 10 10 8 4 3 1 2 5 4 7 9 6 14 26 4 2 1 2 2 3 2 4 4 4 4 5 0 3 6 7 12 7 3 4 7 6 8 8 7
13 12 14 9 9 10 12 9 4 4 2 2 5 18 2 6 9 13 18 18 2 1 1 2 3 2 2 2 1 4 5 10 5 10 9 9 8 12 6 8 13 11 11 10
13 12 12 7 9 9 5 3 1 6 2 1 4 5 4 8 7 10 11 11 3 3 3 4 3 4 3 3 4 3 5 4 6 9 7 6 12 11 15 17 18 15 10 11
11 12 10 9 9 7 2 3 1 4 5 1 4 5 4 6 4 2 2 4 3 3 3 3 3 3 4 3 14 5 7 6 7 7 5 8 9 8 11 6 11 15 12 16
11 12 10 9 9 10 5 3 13 8 1 1 2 4 5 4 3 2 2 1 2 1 2 1 2 1 2 3 3 4 5 7 9 7 6 10 12 13 15 14 11 11 10 9
14 12 10 4 1 1 2 2 7 11 2 1 2 2 4 4 2 1 3 1 2 2 2 3 2 2 4 3 2 5 8 6 10 12 12 12 12 13 11 10 9 9 11 8
7 3 2 0 1 3 7 2 2 1 1 1 2 1 4 1 2 2 2 1 1 2 3 2 2 3 2 5 4 8 10 11 11 12 12 10 11 12 12 12 11 7 8 7
2 2 1 3 7 1 1 2 2 2 2 3 4 5 3 1 1 3 1 2 1 2 2 1 3 2 2 3 8 8 8 9 12 12 15 15 15 15 14 15 13 10 10 8
5 4 3 1 1 2 2 3 2 3 4 3 3 4 5 3 2 2 1 2 0 4 3 1 3 2 6 6 13 14 12 13 13 11 12 13 13 15 14 13 12 15 15 14
0 0 2 3 2 2 4 4 3 3 3 4 3 3 3 1 1 1 1 3 5 2 1 3 2 6 6 8 10 13 14 15 9 11 16 19 18 20 16 11 14 15 13 13
1 2 3 4 4 4 5 5 4 4 3 2 2 2 4 2 3 2 3 3 1 2 2 4 4 7 7 7 9 10 13 12 12 12 15 16 15 17 16 15 19 12 10 10
2 2 4 6 4 3 4 3 3 4 2 3 0 1 2 2 2 2 2 2 3 4 3 3 4 6 6 7 10 12 12 11 10 11 14 14 19 7 3 7 10 11 12 12
2 4 3 3 1 4 2 3 5 2 2 2 2 3 2 4 3 3 5 2 5 4 3 3 4 6 6 6 9 11 14 14 9 12 16 18 18 12 7 7 4 2 3 5
4 4 3 3 3 5 4 4 4 3 2 3 3 3 3 2 2 3 4 5 4 3 4 3 4 5 6 6 7 11 17 16 12 11 14 18 18 22 20 13 14 12 16 20
Wind_Direction
6 8 7 5 359 358 12 48 64 351 139 49 27 92 334 339 338 1 27 106 86 8 13 334 262 170 8 334 155 137 209 156 234 233 295 171 183 196 166 134 236 223 165 263
8 8 8 8 5 3 358 72 278 2 34 104 6 320 346 3 19 14 17 40 24 32 44 94 19 30 355 22 39 85 185 0 4 343 359 13 227 196 143 109 82 194 170 256
10 9 9 8 8 4 30 75 58 347 42 30 106 29 360 359 7 47 3 32 63 26 29 20 352 8 347 337 11 15 105 127 165 192 218 199 283 261 220 149 135 204 216 260
11 11 10 10 9 10 45 26 64 172 13 2 42 38 20 26 9 6 13 33 52 311 306 31 16 2 342 347 356 19 82 208 222 238 251 216 242 263 230 202 221 195 242 211
11 13 13 12 12 21 66 77 42 6 48 324 15 360 30 62 339 321 4 55 320 317 205 32 214 208 226 251 331 22 4 265 152 277 267 284 261 256 263 231 227 260 259 257
10 13 16 17 18 32 67 33 42 97 325 3 86 25 344 28 2 292 69 326 276 291 32 297 246 226 267 260 198 245 318 119 48 263 338 311 314 269 258 201 72 320 216 301
7 12 16 19 24 37 57 34 32 57 349 59 69 345 314 310 310 260 312 307 357 286 318 274 210 216 257 242 251 192 176 163 156 243 352 245 205 356 115 112 18 354 331 331
1 7 14 19 23 30 42 30 42 74 79 261 6 345 327 325 310 265 272 283 1 328 332 45 10 337 346 242 238 232 187 133 207 195 210 305 295 81 67 35 296 314 309 325
355 1 8 14 17 21 37 33 28 76 109 259 89 326 332 316 329 331 291 320 324 24 87 114 196 211 211 267 325 59 83 89 132 114 251 241 231 116 302 167 261 209 240 323
350 355 2 7 9 11 17 26 17 55 62 263 156 200 223 167 200 248 305 337 344 13 42 154 185 231 215 203 193 194 9 351 191 228 240 281 312 257 274 160 257 208 195 240
349 350 354 360 2 4 9 13 23 27 289 272 208 218 178 148 146 187 301 6 353 8 51 94 249 197 279 327 256 189 179 183 213 108 186 273 344 355 324 273 317 278 279 272
344 346 346 353 357 356 1 342 348 317 226 248 238 251 250 240 196 124 323 199 263 218 72 323 86 344 352 185 269 324 255 190 204 182 221 262 310 248 264 276 270 284 280 267
338 340 340 345 348 348 345 325 337 344 358 294 341 330 62 215 227 222 155 270 241 193 163 184 225 247 138 233 244 286 299 157 226 8 277 247 258 280 279 270 258 282 284 287
332 333 334 331 337 336 330 325 305 315 263 310 282 305 297 286 243 213 214 246 356 62 85 221 230 224 179 213 232 186 216 250 268 272 304 304 298 240 274 303 266 264 264 253
328 328 319 317 335 328 320 299 257 233 72 281 287 310 313 307 244 241 228 230 194 334 313 204 228 228 196 208 119 231 194 245 235 265 246 241 260 286 279 287 291 293 288 293
323 321 317 323 326 327 333 358 142 212 221 323 310 298 289 303 286 249 222 201 176 208 190 227 238 248 201 249 238 271 228 244 242 264 269 232 260 269 280 280 283 275 274 268
316 316 316 319 313 308 237 205 168 183 220 343 305 314 281 308 333 26 65 153 202 182 232 228 209 246 181 248 267 263 263 286 294 268 281 284 257 255 271 270 263 263 254 260
309 308 307 301 294 293 296 330 211 166 163 118 303 279 334 2 320 324 354 358 5 256 246 241 219 280 221 259 281 320 290 278 274 238 228 246 269 283 276 271 263 259 257 249
303 293 293 289 212 223 332 343 174 187 229 273 223 281 270 354 334 281 340 45 320 277 242 246 140 218 226 225 262 282 285 267 275 286 284 274 262 273 280 287 270 242 263 262
330 156 165 82 269 149 129 77 110 181 227 226 240 249 262 105 356 306 345 350 265 313 247 304 222 257 256 242 255 283 289 287 293 292 286 288 283 286 285 281 281 252 252 268
350 41 55 36 141 258 226 199 203 149 238 207 238 211 237 251 162 249 165 283 315 286 279 173 261 265 261 270 308 304 297 282 278 263 270 269 259 268 277 281 278 277 254 250
327 289 300 208 285 243 250 210 153 211 241 221 200 222 197 267 168 218 202 270 313 259 335 318 276 264 279 326 318 315 309 295 300 303 304 301 276 262 255 259 261 263 262 259
355 172 218 176 211 248 201 215 238 238 212 217 197 234 187 173 149 217 233 239 230 349 277 271 316 272 295 309 317 319 316 310 304 304 309 301 292 287 259 248 249 262 263 260
157 175 251 208 226 226 203 200 209 237 206 172 185 204 175 165 171 172 227 244 317 279 287 238 238 266 288 301 312 318 319 322 322 323 318 312 309 300 258 234 250 259 258 267
225 188 234 228 231 260 235 232 275 245 209 149 130 25 106 136 207 196 288 258 261 230 243 242 261 285 296 312 323 324 325 315 318 316 318 323 323 326 270 250 256 262 271 264
226 235 259 232 299 272 244 213 251 227 156 106 106 80 287 233 164 160 206 205 236 252 223 241 289 291 308 316 322 325 323 319 309 313 324 338 353 351 22 39 38 346 283 264
231 241 214 208 270 241 245 198 238 154 123 196 137 175 245 108 229 228 181 208 220 228 265 251 250 274 301 318 315 326 332 337 352 342 353 355 4 1 37 38 25 61 81 65